Wind_Speed
39 39 40 40 41 41 42 42 43 44 44 45 45 45 46 46 47 48 49 50 50 51 51 51 51 50 51 52 53 54 55 56 57 58 60 61 62 63 65 66 67 68
40 41 41 42 43 44 44 44 45 45 45 45 46 46 47 48 49 50 50 51 51 51 51 51 51 52 52 53 54 56 57 58 59 60 62 63 64 65 66 68 69 70
41 42 42 43 44 45 45 45 46 46 46 47 47 48 49 50 50 51 51 51 50 51 51 52 53 54 55 56 57 58 59 60 61 62 64 65 66 67 68 69 70 70
42 43 43 44 45 45 46 46 46 47 47 48 48 49 49 50 50 50 50 50 51 52 53 54 55 56 57 58 59 60 61 62 63 64 66 67 68 69 69 70 70 69
43 44 44 45 46 46 46 47 47 47 47 48 48 48 49 49 50 50 51 51 52 54 55 55 56 57 59 60 60 61 62 64 65 66 67 68 69 70 70 69 69 68
43 44 45 45 46 46 46 46 46 46 47 47 48 48 49 50 51 51 52 53 54 55 56 57 58 59 60 61 62 63 64 66 67 68 69 70 70 70 70 69 68 67
44 45 45 45 45 45 45 45 45 46 46 47 48 49 50 51 52 53 54 55 56 57 58 59 60 61 62 63 65 66 67 68 69 69 70 70 70 70 69 68 67 66
46 46 46 46 45 45 45 46 46 47 48 49 50 51 52 53 54 55 56 57 58 59 61 62 63 64 65 66 67 68 69 69 70 70 70 70 69 69 68 67 66 66
47 47 47 47 47 47 47 47 48 49 50 51 52 53 54 55 56 57 58 60 61 62 63 64 65 66 67 68 68 69 70 70 70 70 70 69 68 67 67 66 66 65
48 48 48 48 48 48 49 49 50 51 52 53 54 55 57 58 59 60 61 62 63 64 65 66 67 68 69 70 70 70 71 71 71 70 69 68 67 67 67 67 67 66
48 48 48 49 49 50 50 51 52 53 54 55 57 58 59 60 61 62 63 64 65 66 67 68 69 70 71 71 71 71 71 71 71 70 69 68 68 69 69 69 69 69
49 49 50 50 51 51 52 53 54 55 56 57 59 60 61 62 63 64 65 66 67 69 70 71 71 71 72 71 71 71 71 70 70 69 69 69 70 70 70 71 71 72
51 52 52 53 53 54 55 56 57 58 59 60 61 62 64 65 66 67 68 69 70 71 71 72 72 72 72 72 72 71 71 70 69 69 69 70 70 71 71 72 73 75
54 54 55 56 57 58 58 59 60 61 62 63 64 65 66 67 68 69 70 71 71 72 72 72 72 72 72 72 72 71 70 70 69 69 69 69 70 71 72 74 76 78
56 57 58 59 60 61 62 62 63 63 64 65 66 67 68 69 70 70 71 71 72 72 72 73 73 73 73 72 72 71 70 70 69 69 70 70 71 72 74 77 79 81
59 60 61 62 62 63 63 64 64 65 66 67 67 68 70 70 71 71 72 72 72 72 72 73 73 73 72 72 71 71 70 70 70 71 72 73 74 75 77 80 83 85
61 62 63 63 64 64 65 65 66 66 67 68 69 70 71 72 72 72 72 72 72 72 73 73 73 73 72 71 71 71 71 72 73 74 75 77 78 80 82 84 86 88
63 63 64 65 65 66 66 67 67 68 69 70 71 71 72 72 72 72 72 72 73 73 74 73 73 72 72 72 72 73 74 75 76 77 78 80 83 85 87 88 89 90
64 65 66 67 67 68 68 68 69 69 70 71 71 72 72 71 72 72 73 73 74 74 74 73 73 72 73 73 74 75 77 78 79 81 83 85 87 88 90 91 92 93
66 67 68 68 69 70 70 70 70 70 71 71 71 72 72 72 72 73 74 74 74 73 73 73 73 74 74 76 77 78 80 81 83 85 86 88 89 90 92 92 93 94
68 68 69 69 70 70 70 70 70 71 71 72 72 72 72 73 73 74 74 74 73 72 72 73 75 76 77 79 81 82 83 85 87 88 88 89 90 91 93 93 94 94
69 69 69 70 70 70 70 70 70 71 71 71 72 72 73 73 73 74 74 73 73 73 73 75 78 79 81 82 84 85 86 88 89 90 90 91 91 92 93 94 94 95
69 69 69 69 69 69 70 70 70 70 71 71 72 72 73 73 73 73 73 73 74 75 76 77 80 83 84 85 87 88 89 90 91 92 92 92 92 93 93 94 95 97
68 68 68 68 68 69 69 69 69 70 71 71 72 73 73 73 73 73 74 74 75 77 79 80 83 85 86 87 89 90 92 93 93 93 93 94 94 94 95 96 96 97
68 68 68 68 68 68 68 69 70 71 72 72 73 73 73 73 73 74 75 76 78 80 82 84 85 87 88 89 90 92 93 93 94 94 95 95 95 96 96 97 97 98
67 67 67 67 68 68 69 70 71 72 72 72 72 73 73 74 74 75 77 79 81 83 85 86 87 88 90 90 91 92 92 93 94 95 96 96 97 97 98 98 98 99
Wind_Direction
278 279 280 280 281 281 281 281 282 282 283 284 285 286 287 287 288 289 289 290 291 291 292 292 292 292 293 294 295 296 297 298 299 299 300 301 302 302 303 303 303 303
277 278 279 280 281 282 282 283 284 284 285 285 286 286 287 287 287 288 289 289 290 290 290 291 291 292 293 294 295 296 297 298 299 299 300 301 302 303 303 303 303 303
276 277 278 279 280 281 282 283 283 284 285 286 286 286 287 287 287 287 288 288 289 289 289 290 291 292 293 294 295 296 297 298 299 300 301 301 302 302 302 302 302 301
276 277 277 278 279 279 280 281 282 283 283 284 284 285 285 285 286 286 287 288 288 289 290 290 291 292 293 294 295 296 297 298 299 300 300 301 301 301 301 300 300 299
277 277 278 278 279 279 280 280 281 282 282 282 283 283 284 284 285 286 287 288 288 289 290 290 291 292 293 294 295 296 297 298 299 299 300 300 300 300 299 299 299 298
278 278 278 278 279 279 280 281 281 282 282 282 283 283 284 284 285 286 287 288 288 289 290 290 291 293 294 295 296 297 297 298 299 299 299 299 299 299 298 298 297 297
278 278 278 279 279 279 280 281 281 282 282 282 283 283 284 285 286 287 287 288 289 289 290 291 293 293 294 295 296 297 297 298 298 298 298 298 298 298 297 297 297 296
278 279 279 279 280 280 280 281 281 282 282 283 284 285 285 286 287 287 288 289 290 291 292 292 293 294 294 295 296 296 297 297 297 297 297 297 297 297 296 296 296 296
277 278 278 279 280 280 281 281 282 283 283 284 285 285 286 287 287 289 289 290 291 291 292 292 293 293 294 295 295 296 296 296 297 297 296 296 296 295 295 294 294 294
276 276 277 278 278 279 280 281 282 283 283 284 285 286 287 287 288 289 290 290 290 291 291 292 293 293 294 295 295 295 295 295 295 295 295 295 294 294 294 293 293 292
275 275 276 277 277 278 279 280 282 283 284 285 286 287 288 288 289 289 289 290 290 291 292 292 293 294 294 294 294 295 295 295 294 294 294 294 294 294 293 292 292 292
275 276 277 277 278 280 281 283 284 285 286 287 287 288 288 289 289 290 290 290 291 291 292 292 293 293 293 294 294 294 294 294 294 294 294 294 294 293 293 292 293 294
276 277 278 280 281 283 284 285 286 286 287 287 288 288 289 289 290 290 290 291 291 292 292 292 292 293 293 293 293 294 294 294 293 293 293 294 293 293 293 293 294 296
278 279 280 282 283 284 285 286 286 287 288 288 289 289 289 289 290 290 290 291 291 291 291 292 292 293 293 293 293 294 293 293 293 293 293 294 294 294 294 295 296 297
279 280 281 282 283 284 285 286 287 288 288 288 288 288 288 289 289 290 290 291 291 291 292 292 293 293 294 294 294 294 294 294 294 294 294 295 295 295 296 296 297 298
280 281 282 283 284 285 286 287 287 287 287 287 288 288 288 289 289 290 290 291 292 292 293 293 294 294 294 294 294 294 294 294 295 295 296 296 296 297 297 298 299 300
282 283 284 285 285 286 286 286 286 287 287 288 288 288 289 289 290 291 292 292 293 293 294 294 295 295 295 295 295 295 295 296 296 297 297 298 299 299 300 300 300 300
283 284 284 285 285 285 286 286 287 288 288 288 288 289 290 290 291 292 292 293 294 294 295 295 295 295 295 295 296 296 297 297 298 299 299 300 301 301 301 301 300 300
283 284 284 285 285 286 286 287 287 288 288 288 288 289 290 291 292 293 293 294 295 295 296 296 295 295 296 296 297 298 298 299 299 300 301 301 301 301 301 301 300 300
283 284 284 285 286 286 287 287 287 287 287 288 289 290 291 292 293 294 294 295 295 295 296 296 296 296 297 297 298 299 299 300 301 301 301 301 301 301 301 301 301 301
283 284 284 285 285 286 286 287 287 287 288 289 290 291 292 293 294 294 294 295 295 295 296 296 297 297 298 299 299 300 300 301 301 301 301 301 301 301 302 302 302 303
283 283 284 284 285 285 286 287 287 288 289 290 291 291 292 293 293 294 294 295 296 296 297 298 298 299 299 300 300 300 301 301 301 301 301 301 301 302 303 303 303 304
282 283 283 284 284 285 286 287 288 289 290 290 291 292 292 293 294 294 295 296 297 297 298 298 299 299 300 300 300 300 300 301 301 301 301 302 302 303 303 304 304 305
282 282 283 284 285 285 286 287 288 289 290 291 291 292 293 294 295 296 297 297 297 298 298 299 299 299 299 300 300 300 301 301 301 302 302 303 303 304 304 305 306 306
281 282 283 284 285 286 287 288 289 290 290 291 292 293 294 295 296 297 297 297 297 298 298 299 299 299 300 300 301 301 301 302 302 303 303 304 304 305 305 306 306 306
282 283 284 285 286 288 289 289 290 291 292 293 294 295 295 296 296 296 296 297 297 298 298 298 299 299 300 301 301 302 302 303 303 303 304 305 305 305 306 306 306 306
Height
5845 5844 5844 5843 5842 5841 5841 5840 5839 5838 5836 5835 5834 5833 5832 5830 5829 5827 5826 5824 5822 5821 5819 5817 5815 5813 5811 5809 5806 5804 5802 5799 5796 5794 5791 5788 5785 5782 5779 5775 5771 5768
5841 5840 5840 5839 5838 5837 5836 5835 5834 5833 5832 5831 5829 5828 5827 5825 5824 5822 5820 5819 5817 5815 5813 5811 5809 5807 5805 5803 5801 5798 5796 5793 5790 5787 5785 5782 5779 5776 5772 5769 5765 5761
5837 5836 5835 5834 5834 5833 5832 5831 5829 5828 5827 5826 5825 5823 5822 5820 5818 5816 5815 5813 5811 5809 5807 5805 5803 5801 5799 5797 5795 5793 5790 5787 5784 5781 5778 5775 5772 5769 5766 5762 5757 5754
5832 5831 5831 5830 5829 5828 5827 5826 5825 5824 5822 5821 5820 5818 5816 5815 5813 5811 5809 5808 5806 5804 5802 5800 5798 5796 5793 5791 5789 5786 5784 5781 5778 5775 5772 5768 5766 5763 5759 5755 5751 5746
5827 5826 5825 5824 5824 5823 5822 5821 5820 5819 5817 5816 5814 5812 5811 5809 5807 5806 5804 5802 5800 5798 5796 5794 5792 5790 5787 5785 5783 5780 5778 5775 5772 5769 5765 5762 5758 5755 5752 5748 5744 5739
5822 5821 5820 5819 5818 5817 5817 5816 5815 5813 5812 5810 5809 5807 5805 5804 5802 5800 5798 5796 5794 5792 5790 5788 5786 5784 5781 5779 5776 5774 5771 5769 5766 5762 5759 5755 5751 5747 5744 5741 5738 5733
5817 5816 5815 5814 5813 5812 5811 5810 5809 5808 5807 5805 5803 5801 5800 5798 5796 5794 5792 5790 5788 5786 5783 5781 5779 5777 5775 5772 5769 5767 5764 5762 5759 5755 5751 5748 5744 5740 5736 5733 5730 5726
5812 5811 5810 5809 5808 5807 5806 5805 5804 5802 5801 5799 5798 5796 5794 5792 5790 5788 5786 5783 5781 5779 5776 5774 5772 5770 5768 5766 5763 5760 5757 5754 5751 5748 5744 5741 5737 5733 5729 5726 5723 5719
5807 5806 5805 5804 5803 5802 5801 5800 5798 5797 5795 5793 5792 5790 5787 5785 5783 5781 5779 5776 5774 5771 5769 5767 5765 5763 5761 5758 5756 5753 5750 5746 5743 5740 5737 5733 5730 5726 5723 5719 5715 5712
5802 5801 5800 5799 5798 5797 5795 5794 5792 5791 5789 5787 5785 5783 5781 5779 5776 5774 5772 5769 5767 5764 5762 5760 5758 5755 5753 5750 5748 5745 5743 5739 5736 5732 5729 5726 5723 5719 5715 5712 5708 5705
5796 5795 5794 5793 5792 5791 5790 5788 5787 5785 5783 5781 5779 5776 5774 5772 5769 5767 5765 5762 5760 5757 5754 5752 5749 5747 5744 5742 5739 5737 5735 5732 5728 5725 5721 5718 5714 5711 5707 5704 5700 5697
5791 5790 5788 5787 5786 5785 5783 5782 5780 5778 5776 5774 5772 5769 5767 5765 5762 5760 5757 5754 5752 5749 5746 5743 5741 5739 5736 5734 5731 5729 5726 5723 5720 5717 5714 5710 5707 5703 5699 5695 5692 5688
5784 5783 5782 5781 5779 5778 5777 5775 5773 5771 5769 5767 5764 5762 5759 5757 5754 5752 5749 5746 5743 5740 5737 5735 5732 5730 5728 5725 5723 5720 5718 5715 5712 5709 5706 5703 5699 5695 5691 5687 5684 5680
5778 5777 5775 5774 5773 5771 5769 5768 5766 5764 5762 5759 5757 5754 5752 5749 5747 5744 5741 5738 5735 5732 5729 5726 5723 5721 5718 5716 5714 5711 5709 5706 5704 5701 5698 5696 5692 5688 5684 5679 5676 5672
5771 5770 5769 5767 5765 5764 5762 5760 5759 5756 5754 5752 5749 5747 5744 5741 5739 5736 5733 5730 5726 5723 5720 5717 5714 5712 5709 5707 5705 5703 5701 5698 5695 5692 5689 5687 5684 5680 5676 5671 5667 5663
5764 5763 5762 5760 5758 5757 5755 5753 5751 5749 5746 5744 5741 5739 5736 5733 5731 5728 5725 5721 5718 5714 5711 5708 5705 5703 5700 5698 5696 5694 5692 5689 5686 5684 5680 5677 5675 5672 5668 5663 5658 5653
5757 5756 5754 5753 5751 5749 5747 5745 5743 5741 5738 5736 5733 5730 5728 5725 5722 5719 5716 5713 5710 5706 5702 5699 5695 5693 5691 5688 5686 5684 5682 5680 5677 5674 5671 5667 5664 5661 5657 5653 5649 5643
5750 5748 5747 5745 5743 5741 5740 5737 5735 5733 5730 5727 5724 5722 5719 5716 5713 5710 5707 5704 5701 5697 5693 5690 5686 5684 5681 5679 5677 5674 5672 5670 5667 5664 5661 5658 5653 5649 5646 5642 5637 5633
5742 5741 5739 5737 5735 5733 5731 5729 5727 5724 5721 5718 5716 5713 5711 5708 5705 5702 5699 5695 5693 5689 5684 5680 5677 5675 5672 5670 5668 5665 5662 5660 5657 5654 5651 5648 5643 5638 5634 5630 5624 5620
5734 5733 5731 5729 5727 5725 5723 5721 5718 5716 5713 5710 5708 5705 5702 5699 5696 5693 5690 5687 5684 5681 5676 5672 5668 5666 5663 5660 5658 5656 5653 5650 5647 5644 5641 5637 5633 5628 5622 5617 5612 5606
5726 5724 5722 5720 5719 5716 5714 5712 5709 5707 5704 5702 5699 5697 5694 5691 5688 5685 5682 5678 5675 5673 5669 5663 5658 5656 5654 5651 5648 5646 5643 5640 5636 5634 5631 5627 5623 5617 5610 5605 5600 5594
5718 5716 5714 5712 5710 5708 5706 5704 5701 5699 5696 5693 5691 5688 5686 5683 5680 5677 5673 5670 5667 5664 5661 5655 5648 5645 5644 5641 5637 5635 5632 5630 5626 5623 5620 5616 5613 5607 5600 5594 5588 5581
5709 5707 5706 5704 5702 5700 5697 5695 5693 5690 5688 5685 5682 5680 5677 5675 5671 5668 5664 5662 5658 5654 5652 5648 5641 5635 5633 5631 5627 5623 5621 5618 5615 5611 5608 5604 5601 5597 5590 5584 5578 5571
5701 5699 5697 5696 5694 5691 5689 5687 5685 5682 5679 5677 5674 5671 5668 5666 5663 5659 5655 5652 5650 5646 5642 5639 5634 5627 5623 5620 5617 5612 5609 5606 5601 5598 5595 5592 5589 5585 5580 5573 5568 5561
5693 5691 5689 5687 5685 5683 5681 5678 5676 5673 5670 5668 5665 5662 5660 5657 5654 5652 5648 5643 5640 5637 5632 5629 5625 5619 5613 5609 5606 5602 5598 5594 5589 5584 5581 5579 5575 5571 5568 5563 5558 5552
5685 5683 5681 5679 5676 5674 5672 5669 5666 5664 5661 5658 5656 5653 5651 5648 5646 5644 5640 5636 5632 5628 5623 5618 5614 5610 5604 5598 5594 5591 5587 5582 5577 5571 5567 5565 5562 5558 5553 5550 5547 5542